FW3754 Weather Reports


time (UTC)temp
C
wind
direction
speed
KPH
gust
KPH
rain 1hr
cm
rain 24hr
cm
rain mn
cm
humidity
%
barometer
mb
20260503071536 25 10 1.6 0.0 0.00 0.00 0.00 84 1011.7
20260503054534 25 315 4.8 0.0 0.00 0.00 0.00 76 1012.6
20260503053020 25 305 3.2 0.0 0.00 0.00 0.00 77 1013.1
20260503051525 25 350 3.2 0.0 0.00 0.00 0.00 79 1013.4
20260503050021 25 325 6.4 0.0 0.00 0.00 0.00 78 1013.3
20260503044526 26 315 6.4 0.0 0.00 0.00 0.00 81 1013.5
20260503043013 26 334 4.8 0.0 0.00 0.00 0.00 80 1013.4
20260503041511 26 346 4.8 0.0 0.00 0.00 0.00 79 1013.4
20260503040012 26 340 4.8 0.0 0.00 0.00 0.00 78 1013.3
20260503034509 26 355 3.2 0.0 0.00 0.00 0.00 78 1013.3
20260503033007 26 351 4.8 0.0 0.00 0.00 0.00 77 1013.2
20260503031505 26 340 3.2 0.0 0.00 0.00 0.00 76 1012.9
20260503030006 26 360 6.4 0.0 0.00 0.00 0.00 75 1013.0
20260503024504 26 323 6.4 0.0 0.00 0.00 0.00 74 1012.8
20260503023005 27 360 6.4 0.0 0.00 0.00 0.00 72 1012.9
20260503021503 27 346 8.0 0.0 0.00 0.00 0.00 71 1012.9
20260503020002 27 360 8.0 0.0 0.00 0.00 0.00 70 1012.6
20260503014603 27 324 8.0 0.0 0.00 0.00 0.00 68 1012.5
20260503013103 27 306 8.0 0.0 0.00 0.00 0.00 66 1012.4
20260503011607 28 335 6.4 0.0 0.00 0.00 0.00 65 1012.2
20260503010120 28 350 8.0 0.0 0.00 0.00 0.00 63 1012.0
20260503004557 28 317 8.0 0.0 0.00 0.00 0.00 61 1011.9
20260503003100 28 344 9.7 0.0 0.00 0.00 0.00 58 1011.6
20260503001600 29 348 9.7 0.0 0.00 0.00 0.00 55 1011.5
20260502234555 30 360 9.7 0.0 0.00 0.00 0.00 51 1011.1
20260502233056 31 5 11.3 0.0 0.00 0.00 0.00 47 1010.8
20260502231556 31 360 8.0 0.0 0.00 0.00 0.00 45 1010.5
20260502230054 31 351 8.0 0.0 0.00 0.00 0.00 43 1010.3
20260502224600 32 322 9.7 0.0 0.00 0.00 0.00 42 1010.2
20260502223053 32 14 9.7 0.0 0.00 0.00 0.00 42 1009.9
20260502221553 32 344 12.9 0.0 0.00 0.00 0.00 42 1009.9
20260502220051 32 5 16.1 0.0 0.00 0.00 0.00 45 1009.8
20260502214608 33 9 12.9 0.0 0.00 0.00 0.00 43 1009.7
20260502213054 33 30 14.5 0.0 0.00 0.00 0.00 39 1009.7
20260502211601 33 5 11.3 0.0 0.00 0.00 0.00 42 1009.4
20260502210053 33 322 14.5 0.0 0.00 0.00 0.00 40 1009.4
20260502204550 33 5 9.7 0.0 0.00 0.00 0.00 40 1009.4
20260502203059 33 355 14.5 0.0 0.00 0.00 0.00 42 1009.5
20260502201554 33 25 16.1 0.0 0.00 0.00 0.00 42 1009.5
20260502200045 33 5 17.7 0.0 0.00 0.00 0.00 40 1009.7
20260502194545 33 334 16.1 0.0 0.00 0.00 0.00 43 1009.9
20260502193049 33 289 19.3 0.0 0.00 0.00 0.00 44 1010.0
20260502191543 33 32 16.1 0.0 0.00 0.00 0.00 43 1010.0
20260502190041 33 324 12.9 0.0 0.00 0.00 0.00 44 1010.1
20260502184540 33 273 14.5 0.0 0.00 0.00 0.00 45 1010.2
20260502183038 33 325 12.9 0.0 0.00 0.00 0.00 48 1010.2
20260502181536 33 277 12.9 0.0 0.00 0.00 0.00 49 1010.5
20260502163031 32 265 14.5 0.0 0.00 0.00 0.00 59 1011.0
20260502161523 32 296 12.9 0.0 0.00 0.00 0.00 59 1011.2
20260502151519 31 251 12.9 0.0 0.00 0.00 0.00 63 1011.5
20260502123049 26 236 4.8 0.0 0.00 0.00 0.00 84 1011.3
20260502121550 26 222 4.8 0.0 0.00 0.00 0.00 84 1011.2
20260502114610 24 259 0.0 0.0 0.00 0.00 0.00 89 1011.2
20260502113046 23 218 0.0 0.0 0.00 0.00 0.00 89 1011.3
20260502111546 23 218 0.0 0.0 0.00 0.00 0.00 89 1011.3
20260502110044 23 185 0.0 0.0 0.00 0.00 0.00 88 1011.3
20260502104543 23 186 0.0 0.0 0.00 0.00 0.00 87 1011.3
20260502103043 23 186 0.0 0.0 0.00 0.00 0.00 87 1011.2
20260502101559 23 186 0.0 0.0 0.00 0.00 0.00 86 1011.1